Home > Weather > Porto Velho > Past weeks

Flag for Brazil Past Weather in Porto Velho, Rondônia, Brazil — Yesterday and Last 2 Weeks

Now
70 °F

Clear.


Feels Like: 70 °F
Forecast: 69 / 96 °F
Wind: 1 mph from North

Location: Porto Velho Aeroporto

Current Time: Jul 25, 2016 at 12:26:43 AM

Latest Report: Jul 25, 2016 at 12:00 AM


Visibility: 10 mi

Pressure: 29.89 "Hg

Humidity: 78%

Dew Point: 63 °F

Location of Porto VelhoLocation

Past Weather in Porto Velho — Graph

°F

Porto Velho Temperature Yesterday

Maximum temperature yesterday: 97 °F (at 2:00 PM)
Minimum temperature yesterday: 66 °F (at 6:00 AM)
Average temperature yesterday: 81 °F

High & Low Weather Summary for the Past Weeks

 TemperatureHumidityPressure
High97 °F (Jul 24, 2:00 PM)100% (Jul 20, 7:00 PM)30.01 "Hg (Jul 20, 7:00 PM)
Low66 °F (Jul 20, 7:00 PM)19% (Jul 23, 3:00 PM)29.77 "Hg (Jul 15, 4:00 PM)
Average81 °F66%29.90 "Hg
* Reported Jul 10 12:00 AM — Jul 24 11:00 PM, Porto Velho, Weather by CustomWeather, © 2016

Note: Actual official high and low records may vary slightly from our data, if they occured in-between our weather recording intervals... More about our weather records

Advertising

Porto Velho Weather History for the Previous 24 Hours

Scroll right to see more
 ConditionsComfort  
Time TempWeatherWind HumidityBarometerVisibility
11:00 PM
Sun, Jul 24
72 °FClear.1 mph73%29.89 "Hg10 mi
10:00 PM73 °FClear.No wind69%29.89 "Hg10 mi
9:00 PM75 °FClear.No wind65%29.86 "Hg10 mi
8:00 PM81 °FClear.No wind48%29.83 "Hg10 mi
7:00 PM86 °FPassing clouds.2 mph40%29.83 "HgN/A
6:00 PM88 °FPassing clouds.1 mph38%29.83 "HgN/A
5:00 PM95 °FPassing clouds.5 mph23%29.80 "HgN/A
4:00 PM95 °FPassing clouds.12 mph22%29.83 "HgN/A
3:00 PM97 °FScattered clouds.12 mph19%29.83 "HgN/A
2:00 PM97 °FPassing clouds.5 mph19%29.86 "HgN/A
1:00 PM95 °FPassing clouds.5 mph22%29.89 "HgN/A
12:00 PM95 °FSunny.12 mph22%29.92 "Hg10 mi
11:00 AM91 °FSunny.6 mph28%29.95 "Hg10 mi
10:00 AM86 °FSunny.2 mph38%29.95 "Hg10 mi
9:00 AM82 °FSunny.5 mph48%29.95 "Hg10 mi
8:00 AM75 °FSunny.1 mph74%29.92 "Hg10 mi
7:00 AM66 °FSunny.No wind94%29.92 "Hg10 mi
6:00 AM66 °FPassing clouds.No wind88%29.89 "HgN/A
5:00 AM68 °FClear.No wind83%29.89 "Hg10 mi
4:00 AM70 °FClear.1 mph78%29.86 "Hg10 mi
3:00 AM70 °FClear.No wind83%29.86 "Hg10 mi
2:00 AM68 °FClear.No wind88%29.86 "Hg10 mi
1:00 AM70 °FClear.No wind88%29.86 "Hg10 mi
12:00 AM72 °FClear.No wind73%29.89 "Hg10 mi
Weather by CustomWeather, © 2016

See weather overviewHow to use our weather pages